This is the latest recevied weather packets stored in our database for station/object N1ORT. If no packets are shown the sender has not sent any weather packets the latest 10 day(s).
| Time | Temp. | Humidity | Pressure | Rain* | Wind** | Luminosity | Snow |
|---|---|---|---|---|---|---|---|
| 1777493814 | 10° C | 83% | 1012.7 hPa | 0 mm | - | 219 W/m² | - |
| 1777493513 | 10° C | 83% | 1012.6 hPa | 0 mm | - | 240 W/m² | - |
| 1777493209 | 10° C | 83% | 1012.8 hPa | 0 mm | - | 211 W/m² | - |
| 1777492905 | 10° C | 83% | 1012.9 hPa | 0 mm | - | 255 W/m² | - |
| 1777492602 | 9.44° C | 83% | 1013.1 hPa | 0 mm | - | 280 W/m² | - |
| 1777492297 | 10° C | 82% | 1013 hPa | 0 mm | - | 260 W/m² | - |
| 1777491995 | 10° C | 83% | 1013.2 hPa | 0 mm | - | 288 W/m² | - |
| 1777491691 | 10° C | 83% | 1013.5 hPa | 0 mm | - | 263 W/m² | - |
| 1777491389 | 10° C | 83% | 1013.4 hPa | 0 mm | - | 245 W/m² | - |
| 1777491086 | 10° C | 81% | 1013.5 hPa | 0 mm | - | 248 W/m² | - |
| 1777490781 | 10° C | 82% | 1013.5 hPa | 0 mm | - | 261 W/m² | - |
| 1777490479 | 10° C | 82% | 1013.6 hPa | 0 mm | - | 221 W/m² | - |
| 1777490174 | 10° C | 82% | 1013.7 hPa | 0 mm | - | 226 W/m² | - |
| 1777489872 | 10° C | 82% | 1013.7 hPa | 0 mm | - | 228 W/m² | - |
| 1777489570 | 10.56° C | 81% | 1013.6 hPa | 0 mm | - | 249 W/m² | - |
| 1777489266 | 10.56° C | 80% | 1013.9 hPa | 0 mm | - | 281 W/m² | - |
| 1777488963 | 10.56° C | 80% | 1013.6 hPa | 0 mm | - | 370 W/m² | - |
| 1777488660 | 10.56° C | 79% | 1013.8 hPa | 0 mm | - | 319 W/m² | - |
| 1777488358 | 11.11° C | 79% | 1013.7 hPa | 0 mm | - | 336 W/m² | - |
| 1777488056 | 11.11° C | 78% | 1013.8 hPa | 0 mm | - | 367 W/m² | - |
| 1777487753 | 12.22° C | 75% | 1014 hPa | 0 mm | - | 440 W/m² | - |
| 1777487451 | 12.22° C | 75% | 1013.9 hPa | 0 mm | - | 521 W/m² | - |
| 1777487148 | 12.22° C | 76% | 1013.7 hPa | 0 mm | - | 535 W/m² | - |
| 1777486844 | 11.67° C | 76% | 1013.9 hPa | 0 mm | - | 464 W/m² | - |
| 1777486541 | 12.22° C | 75% | 1013.7 hPa | 0 mm | - | 573 W/m² | - |
* Rain latest hour (hover to see other rain measurements)
** Current wind speed in m/s (hover to see current wind gust speed)